Regional Weather Roundup
Issued by NWS

Home | Current Version | Previous Version | Text Only | Print | Product List | Glossary Off
Versions: 1 2 3 4 5 6 7 8 9 10 11 12 13 14 15 16 17 18 19 20 21 22 23 24 25 26 27 28 29 30 31 32 33 34 35 36 37 38 39 40 41 42 43 44 45 46 47 48 49 50

000
ASUS43 KOAX 012010
RWRNE

WEATHER ROUNDUP FOR NEBRASKA
NATIONAL WEATHER SERVICE OMAHA NE
300 PM CDT WED APR 01 2015

NOTES: SATELLITE DATA IS BEING USED TO AUGMENT CLOUD COVER ABOVE
       12000 FEET.
       "FAIR" INDICATES FEW OR NO CLOUDS BELOW 12,000 FEET WITH NO
       SIGNIFICANT WEATHER AND/OR OBSTRUCTIONS TO VISIBILITY.

  * THESE STATIONS DO NOT REPORT WEATHER SUCH AS RAIN...SNOW OR FOG.

NEZ001>004-019>022-054>056-012100-
NEBRASKA PANHANDLE

CITY           SKY/WX    TMP DP  RH WIND       PRES   REMARKS
SCOTTSBLUFF    MOSUNNY   73  27  18 NW30G39   29.69S
ALLIANCE       MOSUNNY   69  37  30 N15G23    29.69S
CHADRON        MOSUNNY   63  37  38 NW16G25   29.72S
KIMBALL        PTSUNNY   69  27  21 NW22      29.70S
SIDNEY         PTSUNNY   72  29  20 NW21G35   29.69S
$$

NEZ057>060-069>072-079>082-012100-
SOUTHWEST NEBRASKA

CITY           SKY/WX    TMP DP  RH WIND       PRES   REMARKS
NORTH PLATTE   PTSUNNY   80  31  16 NW12      29.59F
IMPERIAL       MOSUNNY   79  26  14 N18G24    29.63F
LEXINGTON      MOSUNNY   84  33  16 SW5       29.57F
MCCOOK         MOSUNNY   85  32  15 NW9       29.58F
OGALLALA       MOSUNNY   76  28  17 N12G17    29.64F
$$

NEZ005>010-023>029-035>040-094-012100-
NORTH CENTRAL NEBRASKA

CITY           SKY/WX    TMP DP  RH WIND       PRES   REMARKS
VALENTINE      CLOUDY    66  37  34 N16G25    29.64F
AINSWORTH      CLOUDY    65  38  37 NW17      29.65S
BROKEN BOW     MOSUNNY   81  39  22 SW9G17    29.57F
O`NEILL        PTSUNNY   78  37  23 NW20G25   29.56F
ORD            PTSUNNY   83  38  20 SW22G29   29.54F
THEDFORD       PTSUNNY   67  38  34 N14G21    29.66R
$$

NEZ041-046>049-061>064-073>077-083>087-012100-
SOUTH CENTRAL NEBRASKA

CITY           SKY/WX    TMP DP  RH WIND       PRES   REMARKS
GRAND ISLAND   MOSUNNY   84  43  23 S24G38    29.57F
AURORA         SUNNY     83  44  24 S26G35    29.58F
HASTINGS       SUNNY     83  44  25 S21G32    29.58F
HEBRON         SUNNY     83  41  22 S29G36    29.61F
HOLDREGE       MOSUNNY   81  40  23 S16G28    29.58F
KEARNEY *      MOSUNNY   82  43  24 S25G35    29.58F
YORK           SUNNY     82  46  28 S26G36    29.60F
$$

NEZ011>018-030>034-042>045-012100-
NORTHEAST NEBRASKA

CITY           SKY/WX    TMP DP  RH WIND       PRES   REMARKS
NORFOLK        MOSUNNY   84  44  24 S28G40    29.53F
ALBION         MOSUNNY   83  40  21 S26G37    29.56F
BLAIR          SUNNY     84  44  24 S25G36    29.61F
COLUMBUS *     SUNNY     84  45  24 S24G33    29.59F
FREMONT        SUNNY     84  42  23 S21G32    29.61F
TEKAMAH        SUNNY     87  45  23 S32G40    29.58F HAZE
WAYNE          MOSUNNY   84  42  22 S35G40    29.55F
$$

NEZ050>053-065>068-078-088>093-012100-
SOUTHEAST NEBRASKA

CITY           SKY/WX    TMP DP  RH WIND       PRES   REMARKS
LINCOLN        SUNNY     84  45  25 S32G40    29.59F
OMAHA EPPLEY   MOSUNNY   83  47  28 S23G37    29.61F
BEATRICE       SUNNY     82  47  29 S28G37    29.63F
FALLS CITY     MOSUNNY   81  47  30 S23G33    29.69F
NEBRASKA CITY  SUNNY     83  40  21 S22G32    29.66F
PLATTSMOUTH    SUNNY     83  38  20 S23G32    29.65F
$$

NEZ044-045-051>053-067-012100-
OMAHA AREA

CITY           SKY/WX    TMP DP  RH WIND       PRES   REMARKS
OMAHA EPPLEY   MOSUNNY   83  47  28 S23G37    29.61F
BLAIR          SUNNY     84  44  24 S25G36    29.61F
FREMONT        SUNNY     84  42  23 S21G32    29.61F
MILLARD        SUNNY     83  47  28 SE21G32   29.61F
OFFUTT AFB     SUNNY     83  46  27 S23G32    29.61F
PLATTSMOUTH    SUNNY     83  38  20 S23G32    29.65F
WAHOO          FAIR      84  38  19 S29G39    29.61F
$$



USA.gov is the U.S. government's official web portal to all federal, state and local government web resources and services.